GW6198 Weather Reports


time (UTC)temp
C
wind
direction
speed
KPH
gust
KPH
rain 1hr
cm
rain 24hr
cm
rain mn
cm
humidity
%
barometer
mb
20260906220646 33 141 8.0 14.5 0.00 0.00 0.00 36 1015.0
20260906220141 33 171 12.9 16.1 0.00 0.00 0.00 36 1015.1
20260906215640 33 155 12.9 20.9 0.00 0.00 0.00 36 1015.1
20260906215138 33 159 20.9 25.7 0.00 0.00 0.00 35 1015.3
20260906214637 34 132 14.5 17.7 0.00 0.00 0.00 35 1015.1
20260906214132 34 195 17.7 32.2 0.00 0.00 0.00 35 1015.0
20260906213631 34 204 12.9 17.7 0.00 0.00 0.00 35 1015.1
20260906213126 34 185 20.9 20.9 0.00 0.00 0.00 35 1015.3
20260906212623 33 139 9.7 9.7 0.00 0.00 0.00 35 1015.4
20260906212120 34 156 16.1 24.1 0.00 0.00 0.00 35 1015.3
20260906211618 34 184 11.3 22.5 0.00 0.00 0.00 35 1015.5
20260906211114 34 188 4.8 19.3 0.00 0.00 0.00 35 1015.5
20260906210610 34 185 14.5 22.5 0.00 0.00 0.00 35 1015.9
20260906210104 34 123 12.9 14.5 0.00 0.00 0.00 35 1015.9
20260906205600 34 133 22.5 27.4 0.00 0.00 0.00 35 1015.8
20260906205056 33 131 9.7 25.7 0.00 0.00 0.00 36 1015.8
20260906204555 33 137 16.1 19.3 0.00 0.00 0.00 36 1016.2
20260906204050 33 157 6.4 9.7 0.00 0.00 0.00 36 1016.3
20260906203549 34 154 17.7 20.9 0.00 0.00 0.00 34 1016.2
20260906203044 33 149 9.7 25.7 0.00 0.00 0.00 35 1016.3
20260906202541 33 170 14.5 17.7 0.00 0.00 0.00 34 1016.2
20260906202036 33 162 3.2 11.3 0.00 0.00 0.00 35 1016.1
20260906201536 34 130 20.9 22.5 0.00 0.00 0.00 34 1016.4
20260906201035 34 180 9.7 20.9 0.00 0.00 0.00 34 1016.3
20260906200531 33 182 19.3 30.6 0.00 0.00 0.00 35 1016.3
20260906200027 33 184 16.1 24.1 0.00 0.00 0.00 34 1016.5
20260906195523 33 132 11.3 22.5 0.00 0.00 0.00 34 1016.5
20260906195019 33 171 9.7 14.5 0.00 0.00 0.00 34 1016.6
20260906194514 33 175 6.4 24.1 0.00 0.00 0.00 35 1016.8
20260906194010 33 181 14.5 20.9 0.00 0.00 0.00 35 1016.6
20260906193510 33 115 16.1 20.9 0.00 0.00 0.00 35 1017.0
20260906193005 33 127 20.9 32.2 0.00 0.00 0.00 36 1016.7
20260906192500 33 173 8.0 19.3 0.00 0.00 0.00 36 1016.8
20260906191959 33 152 8.0 20.9 0.00 0.00 0.00 37 1017.0
20260906191454 33 169 17.7 25.7 0.00 0.00 0.00 37 1016.8
20260906190953 33 163 11.3 24.1 0.00 0.00 0.00 38 1017.0
20260906190452 32 150 16.1 22.5 0.00 0.00 0.00 39 1017.1
20260906185948 32 135 20.9 30.6 0.00 0.00 0.00 40 1017.0
20260906185447 32 136 17.7 24.1 0.00 0.00 0.00 38 1017.1
20260906184946 33 135 22.5 25.7 0.00 0.00 0.00 38 1017.2
20260906184441 33 152 9.7 24.1 0.00 0.00 0.00 38 1017.4
20260906183936 32 183 16.1 20.9 0.00 0.00 0.00 40 1017.6
20260906183433 32 142 8.0 22.5 0.00 0.00 0.00 39 1017.4
20260906182928 32 138 14.5 24.1 0.00 0.00 0.00 39 1017.6
20260906182423 32 188 9.7 29.0 0.00 0.00 0.00 41 1017.6
20260906181919 32 174 12.9 19.3 0.00 0.00 0.00 39 1017.7
20260906181415 32 114 9.7 19.3 0.00 0.00 0.00 39 1017.7
20260906180910 32 149 14.5 25.7 0.00 0.00 0.00 41 1017.8
20260906180405 32 181 14.5 20.9 0.00 0.00 0.00 40 1018.0
20260906175903 32 176 14.5 17.7 0.00 0.00 0.00 40 1018.0
20260906175358 32 180 17.7 20.9 0.00 0.00 0.00 41 1018.0
20260906174857 32 154 11.3 24.1 0.00 0.00 0.00 41 1018.2
20260906174356 31 170 9.7 17.7 0.00 0.00 0.00 42 1018.3
20260906173851 32 189 20.9 25.7 0.00 0.00 0.00 39 1018.1
20260906173347 32 148 9.7 30.6 0.00 0.00 0.00 40 1018.3
20260906172845 32 152 11.3 25.7 0.00 0.00 0.00 39 1018.4
20260906172342 32 138 11.3 27.4 0.00 0.00 0.00 39 1018.0
20260906171837 32 131 14.5 16.1 0.00 0.00 0.00 41 1018.4
20260906171337 32 138 14.5 27.4 0.00 0.00 0.00 40 1018.2
20260906170833 32 157 9.7 20.9 0.00 0.00 0.00 41 1018.4
20260906170329 32 126 14.5 20.9 0.00 0.00 0.00 41 1018.4
20260906165825 31 175 8.0 17.7 0.00 0.00 0.00 43 1018.5
20260906165324 31 118 11.3 20.9 0.00 0.00 0.00 43 1018.4
20260906164819 31 159 9.7 25.7 0.00 0.00 0.00 44 1018.3
20260906164319 31 145 9.7 9.7 0.00 0.00 0.00 45 1018.3
20260906163815 31 186 16.1 17.7 0.00 0.00 0.00 45 1018.4
20260906163311 31 102 9.7 16.1 0.00 0.00 0.00 45 1018.1
20260906162809 31 169 11.3 11.3 0.00 0.00 0.00 47 1018.4
20260906162307 31 167 12.9 16.1 0.00 0.00 0.00 47 1018.3
20260906161802 31 183 8.0 11.3 0.00 0.00 0.00 48 1018.4
20260906161301 31 172 9.7 9.7 0.00 0.00 0.00 49 1018.2
20260906160801 31 172 4.8 8.0 0.00 0.00 0.00 50 1018.3
20260906160255 30 191 4.8 12.9 0.00 0.00 0.00 50 1018.3
20260906155753 30 147 4.8 9.7 0.00 0.00 0.00 50 1018.1
20260906155247 30 192 12.9 14.5 0.00 0.00 0.00 51 1018.4
20260906154743 30 140 8.0 17.7 0.00 0.00 0.00 51 1018.2
20260906154238 30 146 14.5 16.1 0.00 0.00 0.00 52 1018.2
20260906153736 30 180 4.8 12.9 0.00 0.00 0.00 52 1018.3
20260906153231 29 216 4.8 12.9 0.00 0.00 0.00 53 1018.1
20260906152726 29 187 6.4 14.5 0.00 0.00 0.00 53 1018.1
20260906152220 29 186 4.8 9.7 0.00 0.00 0.00 54 1018.1
20260906151715 29 131 9.7 12.9 0.00 0.00 0.00 54 1018.3
20260906151211 28 193 6.4 12.9 0.00 0.00 0.00 55 1018.1
20260906150706 28 189 9.7 11.3 0.00 0.00 0.00 56 1018.1
20260906150201 28 166 6.4 16.1 0.00 0.00 0.00 56 1017.9
20260906145700 28 161 8.0 12.9 0.00 0.00 0.00 56 1017.8
20260906145200 28 172 8.0 12.9 0.00 0.00 0.00 57 1017.8
20260906144659 28 191 6.4 9.7 0.00 0.00 0.00 58 1018.0
20260906144154 28 139 8.0 9.7 0.00 0.00 0.00 58 1017.9
20260906143649 28 154 9.7 11.3 0.00 0.00 0.00 58 1018.0
20260906143147 27 164 6.4 9.7 0.00 0.00 0.00 59 1017.9
20260906142646 27 144 3.2 9.7 0.00 0.00 0.00 60 1018.0
20260906142141 27 141 6.4 8.0 0.00 0.00 0.00 60 1018.0
20260906141640 27 122 6.4 9.7 0.00 0.00 0.00 61 1017.9
20260906141135 27 130 6.4 9.7 0.00 0.00 0.00 61 1018.0
20260906140634 26 168 6.4 9.7 0.00 0.00 0.00 63 1017.9
20260906140129 26 140 6.4 8.0 0.00 0.00 0.00 63 1017.9
20260906135626 26 147 4.8 8.0 0.00 0.00 0.00 64 1017.9
20260906135122 26 136 4.8 6.4 0.00 0.00 0.00 65 1018.0
20260906134618 25 132 4.8 8.0 0.00 0.00 0.00 65 1017.9
20260906134113 25 171 1.6 4.8 0.00 0.00 0.00 66 1017.9
20260906133608 25 133 8.0 9.7 0.00 0.00 0.00 67 1018.0
20260906133103 24 140 6.4 11.3 0.00 0.00 0.00 68 1017.8
20260906132558 24 139 6.4 8.0 0.00 0.00 0.00 69 1017.7
20260906132054 23 138 8.0 9.7 0.00 0.00 0.00 69 1017.7
20260906131549 23 135 6.4 11.3 0.00 0.00 0.00 70 1017.8
20260906131044 23 122 9.7 12.9 0.00 0.00 0.00 70 1017.5
20260906130543 23 122 4.8 9.7 0.00 0.00 0.00 70 1017.6
20260906130039 23 116 4.8 8.0 0.00 0.00 0.00 70 1017.5
20260906125536 23 160 3.2 8.0 0.00 0.00 0.00 71 1017.6
20260906125036 23 122 6.4 8.0 0.00 0.00 0.00 71 1017.5
20260906124532 22 134 6.4 6.4 0.00 0.00 0.00 71 1017.5
20260906124026 22 112 3.2 6.4 0.00 0.00 0.00 72 1017.4
20260906123525 22 113 1.6 4.8 0.00 0.00 0.00 72 1017.2
20260906123021 22 117 3.2 4.8 0.00 0.00 0.00 72 1017.4
20260906122515 22 145 3.2 3.2 0.00 0.00 0.00 72 1017.2
20260906122012 22 78 0.0 3.2 0.00 0.00 0.00 72 1017.1
20260906121507 22 340 0.0 3.2 0.00 0.00 0.00 71 1017.0
20260906121004 23 5 1.6 1.6 0.00 0.00 0.00 70 1017.0
20260906120504 23 36 1.6 3.2 0.00 0.00 0.00 70 1016.9
20260906120000 23 96 3.2 4.8 0.00 0.00 0.00 70 1017.0
20260906115455 23 123 3.2 4.8 0.00 0.00 0.00 70 1017.0
20260906114955 23 70 1.6 3.2 0.00 0.00 0.00 70 1017.0
20260906114450 23 83 3.2 6.4 0.00 0.00 0.00 70 1016.9
20260906113947 23 111 6.4 6.4 0.00 0.00 0.00 70 1016.8
20260906113445 23 114 3.2 3.2 0.00 0.00 0.00 69 1016.7
20260906112940 23 117 0.0 3.2 0.00 0.00 0.00 69 1016.9
20260906112436 23 101 0.0 1.6 0.00 0.00 0.00 70 1016.7
20260906111931 23 50 0.0 0.0 0.00 0.00 0.00 70 1016.8
20260906111430 23 343 0.0 1.6 0.00 0.00 0.00 70 1017.0
20260906110926 23 69 0.0 1.6 0.00 0.00 0.00 70 1016.9
20260906110421 23 304 0.0 0.0 0.00 0.00 0.00 70 1016.8
20260906105920 23 312 0.0 1.6 0.00 0.00 0.00 69 1016.7
20260906105416 23 345 0.0 3.2 0.00 0.00 0.00 68 1016.7
20260906104912 24 147 0.0 0.0 0.00 0.00 0.00 68 1016.6
20260906104410 24 75 0.0 3.2 0.00 0.00 0.00 67 1016.6
20260906103909 24 186 3.2 4.8 0.00 0.00 0.00 67 1016.5
20260906103407 24 187 3.2 4.8 0.00 0.00 0.00 67 1016.5
20260906102904 24 172 3.2 4.8 0.00 0.00 0.00 67 1016.4
20260906102402 24 166 3.2 6.4 0.00 0.00 0.00 67 1016.5
20260906101858 24 175 4.8 8.0 0.00 0.00 0.00 67 1016.4
20260906101353 24 167 3.2 4.8 0.00 0.00 0.00 67 1016.2
20260906100848 24 181 3.2 4.8 0.00 0.00 0.00 67 1016.3
20260906100347 24 200 4.8 4.8 0.00 0.00 0.00 67 1016.4
20260906095842 24 190 4.8 6.4 0.00 0.00 0.00 66 1016.4
20260906095338 24 180 4.8 6.4 0.00 0.00 0.00 66 1016.1
20260906094837 24 182 3.2 6.4 0.00 0.00 0.00 66 1016.3
20260906094333 24 186 4.8 6.4 0.00 0.00 0.00 66 1016.2
20260906093829 25 180 4.8 6.4 0.00 0.00 0.00 65 1016.3
20260906093325 25 197 4.8 6.4 0.00 0.00 0.00 65 1016.3
20260906092820 25 175 4.8 9.7 0.00 0.00 0.00 65 1016.2
20260906092319 25 178 6.4 9.7 0.00 0.00 0.00 65 1016.1
20260906091815 25 172 6.4 8.0 0.00 0.00 0.00 65 1016.2
20260906091311 25 170 4.8 6.4 0.00 0.00 0.00 64 1016.3
20260906090807 25 169 6.4 6.4 0.00 0.00 0.00 64 1016.3
20260906090306 25 166 4.8 6.4 0.00 0.00 0.00 64 1016.3
20260906085806 25 170 3.2 4.8 0.00 0.00 0.00 64 1016.3
20260906085307 25 184 4.8 4.8 0.00 0.00 0.00 64 1016.4
20260906084800 25 180 3.2 4.8 0.00 0.00 0.00 64 1016.4
20260906084300 25 176 3.2 6.4 0.00 0.00 0.00 64 1016.5
20260906083755 25 171 8.0 8.0 0.00 0.00 0.00 64 1016.5
20260906083250 25 163 6.4 8.0 0.00 0.00 0.00 63 1016.6
20260906082745 25 175 4.8 8.0 0.00 0.00 0.00 63 1016.5
20260906082240 26 176 6.4 9.7 0.00 0.00 0.00 62 1016.4
20260906081737 26 173 6.4 9.7 0.00 0.00 0.00 62 1016.4
20260906081236 26 172 4.8 8.0 0.00 0.00 0.00 62 1016.3
20260906080733 26 168 6.4 6.4 0.00 0.00 0.00 62 1016.3
20260906080230 26 168 3.2 4.8 0.00 0.00 0.00 62 1016.4
20260906075723 26 181 3.2 4.8 0.00 0.00 0.00 62 1016.4
20260906075217 26 178 3.2 4.8 0.00 0.00 0.00 62 1016.4
20260906074713 26 196 3.2 4.8 0.00 0.00 0.00 61 1016.5
20260906074212 26 198 4.8 6.4 0.00 0.00 0.00 61 1016.7
20260906073707 26 177 4.8 4.8 0.00 0.00 0.00 61 1016.5
20260906073202 26 205 1.6 6.4 0.00 0.00 0.00 61 1016.4
20260906072657 26 189 6.4 9.7 0.00 0.00 0.00 60 1016.6
20260906072153 26 181 8.0 11.3 0.00 0.00 0.00 60 1016.6
20260906071649 26 187 9.7 14.5 0.00 0.00 0.00 60 1016.7
20260906071148 26 182 9.7 12.9 0.00 0.00 0.00 60 1016.6
20260906070646 26 181 11.3 11.3 0.00 0.00 0.00 60 1016.6
20260906070141 26 182 6.4 9.7 0.00 0.00 0.00 59 1016.5
20260906065640 27 180 8.0 11.3 0.00 0.00 0.00 59 1016.7
20260906065136 27 175 11.3 14.5 0.00 0.00 0.00 59 1016.4
20260906064631 27 178 11.3 17.7 0.00 0.00 0.00 58 1016.6
20260906064126 27 169 11.3 17.7 0.00 0.00 0.00 58 1016.8
20260906063622 27 184 11.3 14.5 0.00 0.00 0.00 58 1016.7
20260906063117 27 161 11.3 12.9 0.00 0.00 0.00 57 1016.6
20260906062613 27 176 9.7 14.5 0.00 0.00 0.00 57 1016.8
20260906062112 27 174 11.3 17.7 0.00 0.00 0.00 56 1016.8
20260906061608 27 180 12.9 17.7 0.00 0.00 0.00 56 1017.0
20260906061108 27 185 8.0 17.7 0.00 0.00 0.00 56 1016.8
20260906060604 27 181 11.3 17.7 0.00 0.00 0.00 55 1016.9
20260906055557 27 188 9.7 19.3 0.00 0.00 0.00 55 1017.0
20260906055052 27 180 16.1 17.7 0.00 0.00 0.00 54 1017.0
20260906054547 28 195 14.5 20.9 0.00 0.00 0.00 54 1017.1
20260906054042 28 184 17.7 20.9 0.00 0.00 0.00 54 1017.1
20260906053538 28 191 14.5 20.9 0.00 0.00 0.00 53 1017.1
20260906053034 28 181 16.1 20.9 0.00 0.00 0.00 53 1016.9
20260906052529 28 188 11.3 19.3 0.00 0.00 0.00 53 1016.9
20260906052026 28 188 14.5 16.1 0.00 0.00 0.00 52 1016.9
20260906051527 28 186 16.1 17.7 0.00 0.00 0.00 52 1016.9
20260906051022 28 185 12.9 17.7 0.00 0.00 0.00 52 1016.9
20260906050517 28 181 12.9 20.9 0.00 0.00 0.00 52 1017.0
20260906050012 28 190 14.5 20.9 0.00 0.00 0.00 53 1016.9
20260906045510 28 180 14.5 17.7 0.00 0.00 0.00 53 1017.1
20260906045006 28 185 12.9 16.1 0.00 0.00 0.00 53 1017.4
20260906044501 28 179 8.0 19.3 0.00 0.00 0.00 53 1017.0
20260906043957 28 184 9.7 19.3 0.00 0.00 0.00 53 1017.2
20260906043452 28 189 14.5 25.7 0.00 0.00 0.00 52 1017.0
20260906042948 28 185 19.3 22.5 0.00 0.00 0.00 52 1017.0
20260906042447 29 183 14.5 22.5 0.00 0.00 0.00 52 1016.9
20260906041942 29 180 20.9 32.2 0.00 0.00 0.00 51 1016.8
20260906041438 29 183 14.5 30.6 0.00 0.00 0.00 51 1017.0
20260906040937 29 182 14.5 27.4 0.00 0.00 0.00 50 1016.8
20260906040433 30 170 16.1 33.8 0.00 0.00 0.00 49 1016.8
20260906035928 30 182 14.5 32.2 0.00 0.00 0.00 48 1016.8
20260906035429 30 173 20.9 32.2 0.00 0.00 0.00 46 1016.8
20260906034924 30 154 11.3 20.9 0.00 0.00 0.00 45 1016.7
20260906034419 30 161 16.1 19.3 0.00 0.00 0.00 44 1016.4
20260906033914 30 131 17.7 22.5 0.00 0.00 0.00 43 1016.3
20260906033414 30 118 19.3 27.4 0.00 0.00 0.00 44 1016.2
20260906032910 30 138 6.4 12.9 0.00 0.00 0.00 44 1016.2
20260906032406 30 115 6.4 9.7 0.00 0.00 0.00 44 1015.9
20260906031900 30 110 3.2 8.0 0.00 0.00 0.00 44 1015.9
20260906031356 30 122 3.2 6.4 0.00 0.00 0.00 43 1015.8
20260906030851 31 135 8.0 9.7 0.00 0.00 0.00 42 1015.8
20260906030346 31 130 8.0 9.7 0.00 0.00 0.00 42 1015.5
20260906025847 31 136 4.8 9.7 0.00 0.00 0.00 42 1015.6
20260906025340 31 125 6.4 8.0 0.00 0.00 0.00 42 1015.4
20260906024839 31 143 6.4 8.0 0.00 0.00 0.00 42 1015.4
20260906024339 31 134 4.8 8.0 0.00 0.00 0.00 41 1015.2
20260906023834 31 133 6.4 9.7 0.00 0.00 0.00 41 1015.1
20260906023330 32 140 8.0 11.3 0.00 0.00 0.00 41 1015.2
20260906022825 32 157 6.4 9.7 0.00 0.00 0.00 40 1015.1
20260906022320 32 136 11.3 12.9 0.00 0.00 0.00 40 1015.0
20260906021816 32 133 8.0 12.9 0.00 0.00 0.00 40 1015.2
20260906021316 32 139 11.3 14.5 0.00 0.00 0.00 39 1015.0
20260906020816 32 144 8.0 14.5 0.00 0.00 0.00 39 1014.9
20260906020316 32 145 12.9 17.7 0.00 0.00 0.00 38 1014.5
20260906015816 32 145 9.7 14.5 0.00 0.00 0.00 38 1014.5
20260906015315 32 148 8.0 11.3 0.00 0.00 0.00 37 1014.5
20260906014814 33 139 9.7 12.9 0.00 0.00 0.00 36 1014.5
20260906014310 33 161 4.8 12.9 0.00 0.00 0.00 36 1014.4
20260906013806 33 145 9.7 12.9 0.00 0.00 0.00 35 1014.4
20260906013307 33 153 9.7 14.5 0.00 0.00 0.00 35 1014.2
20260906012802 33 149 6.4 14.5 0.00 0.00 0.00 35 1014.3
20260906012257 33 145 8.0 12.9 0.00 0.00 0.00 35 1014.4
20260906011753 33 140 9.7 17.7 0.00 0.00 0.00 35 1014.1
20260906011252 33 146 9.7 16.1 0.00 0.00 0.00 35 1014.2
20260906010748 33 135 9.7 16.1 0.00 0.00 0.00 35 1014.2
20260906010244 33 151 9.7 14.5 0.00 0.00 0.00 34 1014.1
20260906005739 34 139 9.7 12.9 0.00 0.00 0.00 35 1014.3
20260906005238 34 157 6.4 17.7 0.00 0.00 0.00 34 1013.8
20260906004737 34 141 9.7 20.9 0.00 0.00 0.00 34 1014.1
20260906004232 34 131 11.3 19.3 0.00 0.00 0.00 34 1014.1
20260906003727 35 131 6.4 16.1 0.00 0.00 0.00 33 1014.0
20260906003223 35 137 6.4 12.9 0.00 0.00 0.00 33 1014.0
20260906002723 35 137 11.3 14.5 0.00 0.00 0.00 32 1014.1
20260906002218 35 122 16.1 17.7 0.00 0.00 0.00 33 1014.0
20260906001713 35 139 8.0 17.7 0.00 0.00 0.00 33 1014.1
20260906001213 35 138 9.7 17.7 0.00 0.00 0.00 33 1014.1
20260906000709 35 133 16.1 20.9 0.00 0.00 0.00 31 1013.9
20260906000204 35 137 9.7 16.1 0.00 0.00 0.00 31 1013.8
20260905235703 36 131 17.7 27.4 0.00 0.00 0.00 30 1013.8
20260905235158 35 159 6.4 14.5 0.00 0.00 0.00 32 1013.8
20260905234653 36 170 12.9 19.3 0.00 0.00 0.00 31 1013.7
20260905234148 36 136 9.7 17.7 0.00 0.00 0.00 31 1013.8
20260905233644 36 111 6.4 20.9 0.00 0.00 0.00 30 1013.6
20260905233143 36 114 6.4 20.9 0.00 0.00 0.00 29 1013.6
20260905232638 36 121 11.3 14.5 0.00 0.00 0.00 30 1013.7
20260905232134 36 175 11.3 20.9 0.00 0.00 0.00 30 1013.5
20260905231629 36 135 14.5 14.5 0.00 0.00 0.00 29 1013.6
20260905231125 36 159 6.4 20.9 0.00 0.00 0.00 29 1013.5
20260905230621 36 168 11.3 14.5 0.00 0.00 0.00 30 1013.6
20260905230118 36 156 11.3 17.7 0.00 0.00 0.00 30 1013.6
20260905225618 36 89 6.4 16.1 0.00 0.00 0.00 29 1013.5
20260905225113 36 181 8.0 19.3 0.00 0.00 0.00 30 1013.6
20260905224613 36 124 9.7 16.1 0.00 0.00 0.00 29 1013.5
20260905224112 36 103 4.8 6.4 0.00 0.00 0.00 30 1013.5
20260905223610 36 162 9.7 12.9 0.00 0.00 0.00 30 1013.7
20260905223106 36 119 16.1 20.9 0.00 0.00 0.00 30 1013.6
20260905222606 36 110 8.0 17.7 0.00 0.00 0.00 31 1013.7
20260905222101 36 134 12.9 17.7 0.00 0.00 0.00 30 1013.6
20260905221557 36 158 1.6 6.4 0.00 0.00 0.00 31 1013.7
20260905221053 36 182 8.0 12.9 0.00 0.00 0.00 30 1013.8